Flag for Japan Weather past 2 weeks in Fukuoka, Japan

Now
55 °F

Clear.


Feels Like: 52 °F
Forecast: 56 / 72 °F
Wind: 12 mph from Southeast

Location: Fukuoka Airport


UV Index: 7 (High)

Visibility: 10 mi


Pressure: 30.18 "Hg

Humidity: 51%

Dew point: 37 °F

Location of FukuokaLocation

Historic Weather in Fukuoka

°F

Fukuoka temperature yesterday

Maximum temperature yesterday: 75 °F (at 2:30 PM)
Minimum temperature yesterday: 48 °F (at 5:30 AM)
Average temperature yesterday: 63 °F

Past Weeks' High & Low Weather Summary

 TemperatureHumidityPressure
High75 °F (Apr 24, 2:30 PM)94% (Apr 13, 5:00 AM)30.18 "Hg (Apr 13, 5:00 AM)
Low46 °F (Apr 15, 3:30 AM)15% (Apr 24, 4:30 PM)29.77 "Hg (Apr 18, 12:00 AM)
Average60 °F64%30.01 "Hg
* Reported Apr 10 3:00 AM — Apr 25 3:30 AM, Fukuoka, Weather by CustomWeather, © 2014

Note: Actual official high and low records may vary slightly from our data, if they occured in-between our weather recording intervals... More about our weather records

Advertising

Historic Weather Conditions — Data for Previous 24 hours

 ConditionsComfort  
Time TempWeatherWind HumidityBarometerVisibility
3:30 AM
Apr 25
55 °FClear.10 mph55%30.18 "Hg10 mi
3:00 AM57 °FClear.12 mph51%30.18 "Hg10 mi
2:30 AM55 °FClear.13 mph55%30.18 "Hg10 mi
2:00 AM57 °FClear.12 mph51%30.15 "Hg10 mi
1:30 AM59 °FClear.8 mph45%30.18 "Hg10 mi
1:00 AM55 °FClear.5 mph51%30.18 "Hg10 mi
12:30 AM57 °FClear.3 mph48%30.18 "Hg10 mi
12:00 AM59 °FPassing clouds.3 mph42%30.18 "HgN/A
11:30 PM
Apr 24
59 °FClear.3 mph42%30.18 "Hg10 mi
11:00 PM59 °FClear.2 mph45%30.18 "Hg10 mi
10:30 PM59 °FClear.2 mph45%30.18 "Hg10 mi
10:00 PM61 °FPassing clouds.3 mph42%30.18 "HgN/A
9:30 PM63 °FPassing clouds.3 mph37%30.18 "HgN/A
9:00 PM61 °FPassing clouds.6 mph39%30.18 "HgN/A
8:30 PM64 °FPassing clouds.6 mph32%30.15 "HgN/A
8:00 PM64 °FClear.5 mph28%30.15 "Hg10 mi
7:30 PM66 °FPassing clouds.8 mph26%30.15 "HgN/A
7:00 PM68 °FPassing clouds.7 mph24%30.12 "HgN/A
6:30 PM70 °FPassing clouds.9 mph20%30.12 "HgN/A
6:00 PM72 °FSunny.10 mph15%30.12 "Hg10 mi
5:30 PM73 °FPassing clouds.9 mph15%30.12 "HgN/A
5:00 PM73 °FPassing clouds.10 mph15%30.12 "HgN/A
4:30 PM73 °FPassing clouds.10 mph15%30.12 "HgN/A
4:00 PM73 °FPassing clouds.13 mph16%30.12 "HgN/A
3:30 PM73 °FPassing clouds.12 mph17%30.12 "HgN/A
3:00 PM75 °FSunny.10 mph16%30.12 "Hg10 mi
2:30 PM75 °FPassing clouds.13 mph18%30.12 "HgN/A
2:00 PM73 °FSunny.6 mph27%30.12 "Hg10 mi
1:30 PM73 °FPassing clouds.10 mph17%30.15 "HgN/A
1:00 PM73 °FPassing clouds.10 mph16%30.15 "HgN/A
12:30 PM73 °FPassing clouds.7 mph22%30.15 "HgN/A
12:00 PM72 °FSunny.10 mph20%30.18 "Hg10 mi
11:30 AM72 °FPassing clouds.10 mph17%30.18 "HgN/A
11:00 AM72 °FPassing clouds.10 mph17%30.18 "HgN/A
10:30 AM72 °FPassing clouds.10 mph20%30.18 "HgN/A
10:00 AM68 °FSunny.2 mph33%30.18 "Hg10 mi
9:30 AM66 °FPassing clouds.3 mph32%30.18 "HgN/A
9:00 AM64 °FPassing clouds.3 mph43%30.18 "HgN/A
8:30 AM63 °FSunny.5 mph39%30.18 "Hg10 mi
8:00 AM57 °FPassing clouds.3 mph51%30.18 "HgN/A
7:30 AM55 °FSunny.3 mph59%30.15 "Hg10 mi
7:00 AM52 °FSunny.3 mph67%30.15 "Hg10 mi
6:30 AM52 °FSunny.3 mph62%30.15 "Hg10 mi
6:00 AM52 °FSunny.3 mph62%30.12 "Hg10 mi
5:30 AM48 °FClear.3 mph71%30.12 "Hg10 mi
5:00 AM52 °FClear.3 mph67%30.12 "Hg10 mi
4:30 AM50 °FClear.2 mph67%30.12 "Hg10 mi
4:00 AM52 °FClear.5 mph67%30.12 "Hg10 mi
Weather by CustomWeather, © 2014

See weather overview